Regional Weather Roundup
Issued by NWS Northern Indiana

Home | Current Version | Previous Version | Graphics & Text | Print | Product List | Glossary On
Versions: 1 2 3 4 5 6 7 8 9 10 11 12 13 14 15 16 17 18 19 20 21 22 23 24 25 26 27 28 29 30 31 32 33 34 35 36 37 38 39 40 41 42 43 44 45 46 47 48 49 50
000
ASUS43 KIWX 010100
RWRIWX

KIWX WEATHER ROUNDUP
NATIONAL WEATHER SERVICE NORTHERN INDIANA
900 PM EDT FRI SEP 30 2016

NOTE: "FAIR" INDICATES FEW OR NO CLOUDS BELOW 12,000 FEET WITH NO
SIGNIFICANT WEATHER AND/OR OBSTRUCTIONS TO VISIBILITY.

* THESE STATIONS ARE NOT UNDER NWS QUALITY CONTROL. THEY ALSO MAY NOT
  REPORT WEATHER SUCH AS PRECIPITATION OR FOG.

INZ001>027-010200-
NORTHERN INDIANA

CITY           SKY/WX    TMP DP  RH WIND       PRES   REMARKS
GARY*          CLOUDY    63  61  94 NE12G23   30.06F
SOUTH BEND     CLOUDY    59  58  96 NE10      30.05F
ELKHART*       CLOUDY    61  57  88 NE13      30.05S
GOSHEN         LGT RAIN  61  57  87 NE12      30.05R
ANGOLA*          N/A     59  46  63 NE6       30.05R
FORT WAYNE     PTCLDY    58  56  93 NE6       30.04R
PERU/GRISSOM   PTCLDY    61  59  92 NE7       29.99S

$$
INZ028>050-010200-
CENTRAL INDIANA

CITY           SKY/WX    TMP DP  RH WIND       PRES   REMARKS
LAFAYETTE      CLOUDY    62  59  90 NE9       30.00R
KOKOMO*        CLOUDY    61  57  88 E7        30.01S
MUNCIE*        CLOUDY    61  60  97 E6        30.01R
INDIANAPOLIS   LGT RAIN  59  56  89 CALM      29.99R

$$
MIZ043>046-050>051-056>058-064>065-071>073-077>080-010200-
SOUTHWEST LOWER MICHIGAN

CITY           SKY/WX    TMP DP  RH WIND       PRES   REMARKS
BATTLE CREEK   CLOUDY    59  58  96 NE5       30.10F
BENTON HARBOR  CLOUDY    61  57  87 VRB7      30.07F
COLDWATER*     LGT RAIN  59  59  99 NE16      30.06F
HILLSDALE*     CLOUDY    59  55  88 NE7       30.08R
HOLLAND        LGT RAIN  60  57  89 E8        30.11S
GRAND RAPIDS   LGT RAIN  59  57  93 NE9       30.10F
KALAMAZOO      LGT RAIN  60  56  86 NE7       30.09F FOG
STURGIS*       LGT RAIN  59  57  92 E8        30.05R
THREE RIVERS*  LGT RAIN  60  59  96 NE12      30.06F

$$
OHZ001>008-015>018-024>025-010200-
NORTHWEST OHIO

CITY           SKY/WX    TMP DP  RH WIND       PRES   REMARKS
DEFIANCE       CLOUDY    61  57  87 E9        30.06R
FINDLAY        CLOUDY    61  57  87 NE9       30.04S
TOLEDO EXPRESS CLOUDY    60  60 100 E7        30.07R
TOLEDO METCALF LGT RAIN  61  60  97 E9        30.08R FOG
LIMA           CLOUDY    59  59 100 NE8       30.04R

$$
AND FOR LAKE MICHIGAN COASTAL AND OPEN LAKE BUOY OBSERVATIONS

STATION/POSITION TEMP    WIND        PRES    VSBY  WAVE
                 AIR SEA DIR/SP/G                  HT/PER
                 (F)     (DEG/KT/KT) (MB)    (MI)  (FT/S)
CALUMET HARBOR            40/ 11/ 17 1017.7R
MICHIGAN CITY     61      20/ 17/ 19   N/A
BURNS HARBOR      62      50/ 17/ 20 1017.6S
SAINT JOSEPH      61      30/  4/  8 1018.3F
SOUTH LAKE BUOY   64 68   70/ 21/ 25 1018.3          5/ 6
4 MI NW BRIDGMAN  55 51   30/ 10/ 12 1018.3F         3/ 6
MICHIGAN CITY     62 64   50/ 14/ 19   N/A           5/ 6

$$
&&



USA.gov is the U.S. government's official web portal to all federal, state and local government web resources and services.